TimeCST,TemperatureF,Dew PointF,Humidity,Sea Level PressureIn,VisibilityMPH,Wind Direction,Wind SpeedMPH,Gust SpeedMPH,PrecipitationIn,Events,Conditions,WindDirDegrees,DateUTC
12:56 AM,28.0,21.0,75,30.41,10.0,NNW,6.9,-,N/A,,Overcast,330,2012-12-30 06:56:00
1:56 AM,28.0,21.0,75,30.43,10.0,NNW,10.4,-,N/A,,Overcast,340,2012-12-30 07:56:00
2:56 AM,28.0,21.0,75,30.44,10.0,North,8.1,-,N/A,,Overcast,350,2012-12-30 08:56:00
3:56 AM,26.1,21.0,81,30.45,10.0,Calm,Calm,-,N/A,,Mostly Cloudy,0,2012-12-30 09:56:00
4:03 AM,26.6,21.2,80,30.44,10.0,Calm,Calm,-,N/A,,Scattered Clouds,0,2012-12-30 10:03:00
4:56 AM,25.2,21.0,84,30.47,10.0,Calm,Calm,-,N/A,,Partly Cloudy,0,2012-12-30 10:56:00
5:56 AM,23.0,20.1,89,30.48,10.0,Calm,Calm,-,N/A,,Clear,0,2012-12-30 11:56:00
6:56 AM,21.0,20.1,96,30.51,10.0,Calm,Calm,-,N/A,,Clear,0,2012-12-30 12:56:00
7:56 AM,24.1,22.1,92,30.54,10.0,Calm,Calm,-,N/A,,Clear,0,2012-12-30 13:56:00
8:56 AM,29.1,23.0,78,30.56,10.0,Calm,Calm,-,N/A,,Clear,0,2012-12-30 14:56:00
9:56 AM,31.1,22.1,69,30.56,10.0,Calm,Calm,-,N/A,,Clear,0,2012-12-30 15:56:00
10:56 AM,34.0,23.0,64,30.54,10.0,Calm,Calm,-,N/A,,Clear,0,2012-12-30 16:56:00
11:56 AM,36.9,24.1,60,30.51,10.0,Calm,Calm,-,N/A,,Clear,0,2012-12-30 17:56:00
12:56 PM,37.9,24.1,57,30.47,10.0,Calm,Calm,-,N/A,,Clear,0,2012-12-30 18:56:00
1:56 PM,39.9,24.1,53,30.46,10.0,Calm,Calm,-,N/A,,Clear,0,2012-12-30 19:56:00
2:56 PM,39.9,23.0,51,30.48,10.0,Calm,Calm,-,N/A,,Clear,0,2012-12-30 20:56:00
3:56 PM,37.9,24.1,57,30.47,10.0,Calm,Calm,-,N/A,,Clear,0,2012-12-30 21:56:00
4:56 PM,34.9,25.2,68,30.45,10.0,Calm,Calm,-,N/A,,Clear,0,2012-12-30 22:56:00
5:56 PM,32.0,26.1,79,30.46,10.0,Calm,Calm,-,N/A,,Clear,0,2012-12-30 23:56:00
6:56 PM,30.0,26.1,85,30.46,10.0,Calm,Calm,-,N/A,,Clear,0,2012-12-31 00:56:00
7:56 PM,28.0,26.1,92,30.45,10.0,Calm,Calm,-,N/A,,Clear,0,2012-12-31 01:56:00
8:56 PM,25.2,24.1,96,30.43,10.0,Calm,Calm,-,N/A,,Clear,0,2012-12-31 02:56:00
9:56 PM,26.1,25.2,96,30.42,10.0,Calm,Calm,-,N/A,,Clear,0,2012-12-31 03:56:00
10:56 PM,27.1,26.1,96,30.40,10.0,Calm,Calm,-,N/A,,Clear,0,2012-12-31 04:56:00
11:56 PM,26.1,25.2,96,30.39,10.0,Calm,Calm,-,N/A,,Clear,0,2012-12-31 05:56:00